User: anonymous   Login
Location: Unspecified
(0.0000°N, 0.0000°E)
Time: 15:27:17
(UTC+00:00)
Language:

FEDSAT - Orbit

View from above orbital plane
View from above orbital plane
View from above satellite
View from above satellite

Ground track
Ground track

The orbit data is extracted from the following two-line orbital elements,

1 27598U 02056B   17228.87028169 -.00000001  00000-0  16325-4 0  9998
2 27598  98.4375 182.5720 0010302  68.6921 291.5360 14.28629790765004
Epoch (UTC): 16 August 2017 20:53:12
Eccentricity: 0.0010302
inclination: 98.4375°
perigee height: 789 km
apogee height: 804 km
right ascension of ascending node: 182.5720°
argument of perigee: 68.6921°
revolutions per day: 14.28629790
mean anomaly at epoch: 291.5360°
orbit number at epoch: 76500

The dashed part of the orbit path shows where the satellite is in the earth's shadow,  

DLR